www.pogodaiklimat.ru

Погода и климат >> Архив погоды >> Россия >> Якутия >> Батагай


ПОГОДА в Батагае

  • Прогноз погоды в Батагае
  • Монитор погоды в Батагае
  • Климат города

АРХИВ ПОГОДЫ в Батагае

Время (UTC), дата Ветер
(напр.,м/с)
 
Видим.   Явления Облачность Т
(С)
Тd
(С)
f
(%)
Тe
(С)
Тes
(С)
Комфортность P
(гПа)
Po
(гПа)
Тmin
(С)
Tmax
(С)
R
(мм)
R24
(мм)
S
(см)
15 14.10 ЮВ 2 50 км 10/10 600 м
[Sc]
-5.0 -6.0 93 -9 -9 1028.3 1000.7
18 14.10 ЮВ 2 50 км 10/10 720 м
[Sc]
-5.1 -6.1 93 -9 -9 1027.1 999.5
21 14.10 ЮВ 2 50 км 10/5 1000 м
[Sc As trans]
-5.5 -8.1 82 -10 -10 1026.7 999.1 -5.5 3
00 15.10 В 2 50 км 10/3 300 м
[Sc As trans]
-5.2 -6.6 90 -10 -9 1026.4 998.8
03 15.10 ЮВ 2 50 км 10/8 960 м
[Sc Cs]
-3.1 -5.8 82 -7 -7 1025.6 998.2
06 15.10 ЮВ 2 50 км 10/10 750 м
[Sc]
-2.4 -6.0 76 -6 -6 1025.5 998.2
09 15.10 В 2 50 км слабый снег 10/10 700 м
[Sc]
-2.9 -5.9 80 -7 -7 1025.5 998.1 -2.3 0.0
12 15.10 ЮВ 3 50 км {снег} 10/8 960 м
[Sc Ci fib]
-2.7 -5.7 80 -8 -8 1024.9 997.6
15 15.10 ЮВ 3 50 км 10/8 1080 м
[Sc Ac trans]
-2.6 -6.3 76 -8 -8 1024.4 997.2
18 15.10 В 2 50 км 8/3 1500 м
[Sc Ci fib]
-3.3 -6.8 77 -7 -7 1024.2 996.9
21 15.10 ЮВ 3 50 км 8/0
[Ac trans Ci fib]
-4.0 -7.7 75 -9 -9 1024.2 996.8 -4.1 0.0 3
00 16.10 В 2 50 км 10/0
[Ac trans Ci fib]
-2.8 -7.3 71 -7 -6 1023.3 996.1 -10.5
03 16.10 В 3 50 км 10/0
[Cs]
-0.8 -6.8 64 -5 -5 1021.6 994.6
06 16.10 В 2 50 км 10/0
[Cs]
-0.8 -7.0 63 -4 -4 1019.9 992.9
09 16.10 В 2 50 км 10/0
[Ac trans Cs]
-1.8 -7.5 65 -5 -5 1018.1 991.2 +0.1
12 16.10 В 3 50 км 10/0
[Ac trans Cs]
-3.2 -7.5 72 -8 -8 1016.8 989.7
15 16.10 ЮВ 3 50 км 10/0
[Ci fib]
-4.0 -7.3 78 -9 -9 1015.1 987.8
18 16.10 ЮВ 3 50 км 10/0
[Ac trans Ci fib]
-4.2 -7.6 77 -9 -9 1013.1 986.0
21 16.10 ЮВ 3 50 км 10/0
[Ac trans Ci fib]
-4.4 -9.1 70 -10 -10 1011.5 984.4 -4.7 3
00 17.10 ЮВ 2 50 км 10/0
[Ac trans Ci fib]
-3.6 -9.3 65 -7 -7 1011.0 984.0
03 17.10 Ю 3 50 км 3/0
[Ac trans Ci fib]
+2.8 -8.3 44 -0 0 1010.4 984.0
06 17.10 ЮЗ 4 50 км 10/4 1500 м
[Sc Ac trans Ci fib]
+2.0 -7.7 49 -2 -2 1011.5 985.0
09 17.10 ЮЗ 4 50 км 10/3 1500 м
[Sc Ac trans Ci fib]
-0.8 -8.5 56 -6 -6 1013.5 986.7 +3.2
12 17.10 ЮЗ 2 50 км 10/6 1500 м
[Sc Ac trans Ci fib]
-2.3 -8.2 64 -6 -6 1014.7 987.7
15 17.10 Ю 3 50 км 10/0
[Ac trans Ci fib]
-4.7 -12.4 55 -10 -10 1015.7 988.3
18 17.10 Ю 1 50 км 3/0
[Ci fib]
-8.7 -13.0 71 -11 -11 1016.5 988.7
21 17.10 В 1 50 км 3/0
[Ac trans Ci fib]
-12.6 -15.3 80 -15 -15 1017.0 988.9 -12.7 2
00 18.10 ЮВ 1 50 км 1/0
[Ac trans]
-10.5 -14.1 75 -13 -13 1016.8 988.9
03 18.10 штиль 0 50 км 1/0
[Ci fib]
-4.6 -12.7 53 -5 -4 1015.7 988.4
06 18.10 Ю 2 50 км 3/0
[Ci fib]
-3.9 -12.6 51 -7 -7 1015.1 987.8
09 18.10 ЮВ 2 50 км 1/0
[Ci fib]
-7.3 -14.3 57 -11 -11 1014.8 987.4 -1.9
12 18.10 ЮВ 1 50 км 1/0
[Ci fib]
-9.5 -14.7 66 -12 -12 1014.4 986.8
15 18.10 Ю 3 50 км ясно -7.9 -14.1 61 -13 -13 1013.5 986.0
18 18.10 ЮВ 2 50 км ясно -11.5 -15.0 75 -16 -16 1013.1 985.3
21 18.10 ЮВ 3 50 км 10/3
[Cb calv Ci fib]
-11.5 -15.0 75 -17 -17 1012.8 985.0 -11.5 2
00 19.10 ЮВ 3 50 км 10/0
[Ac trans Ci fib]
-10.9 -14.5 75 -17 -17 1012.1 984.3
03 19.10 ЮВ 3 50 км 10/0
[Ac trans Ci fib]
-7.4 -13.3 63 -13 -12 1010.9 983.5
06 19.10 ЮВ 2 50 км 10/6 1410 м
[Sc Ci fib]
-7.2 -13.0 63 -11 -11 1010.9 983.5
09 19.10 ЮВ 2 50 км 10/8 1320 м
[Sc Ci fib]
-7.1 -12.4 66 -11 -11 1011.4 984.0 -6.2
12 19.10 ЮВ 2 50 км 10/8 1350 м
[Sc Ac trans]
-6.7 -11.8 67 -11 -11 1011.9 984.5
15 19.10 ЮВ 3 50 км 10/5 1500 м
[Sc Ac trans]
-7.5 -11.9 71 -13 -13 1012.9 985.5
18 19.10 ЮВ 2 50 км 10/0
[Ac trans Ci fib]
-8.4 -10.7 83 -13 -13 1013.6 986.1
21 19.10 ЮВ 2 50 км 6/0
[Ac trans Ci fib]
-9.1 -10.2 92 -14 -14 1014.8 987.2 -9.1 2
00 20.10 В 2 50 км 4/0
[Ac trans Ci fib]
-8.8 -9.5 95 -13 -13 1016.0 988.2
03 20.10 В 2 50 км 10/0
[Ac trans Ci fib]
-6.2 -9.8 76 -10 -10 1015.9 988.4
06 20.10 СВ 1 50 км 10/0
[Ac trans Cs]
-6.5 -10.1 76 -9 -9 1016.1 988.6
09 20.10 В 2 50 км 10/0
[Ac trans Cs]
-7.5 -10.1 82 -12 -12 1017.0 989.4 -5.0
12 20.10 В 3 50 км 10/0
[Ac trans Cs]
-8.5 -10.9 83 -14 -14 1017.3 989.6
15 20.10 ЮВ 4 50 км 10/0
[Ac trans Cs]
-9.6 -12.2 81 -17 -17 1017.4 989.6
18 20.10 ЮВ 3 50 км 10/0
[Ac trans Ci fib]
-9.8 -12.4 81 -16 -16 1018.0 990.1
21 20.10 В 3 50 км 10/0
[Ac trans Ci fib]
-10.2 -13.0 80 -16 -16 1018.4 990.5 -10.5 2
00 21.10 ЮВ 2 50 км 10/0
[Ac trans Ci fib]
-11.5 -14.3 80 -16 -16 1018.9 990.9
03 21.10 ЮВ 2 50 км 10/0
[Cs]
-8.3 -12.5 72 -13 -12 1018.2 990.5
06 21.10 ЮВ 3 50 км 10/0
[Ac trans Cs]
-8.5 -12.8 71 -14 -14 1018.0 990.3
09 21.10 ЮВ 3 50 км 10/0
[Ac trans Ci fib]
-9.0 -12.9 73 -15 -15 1018.0 990.2 -7.8
12 21.10 В 2 50 км 10/0
[Ac trans Cs]
-9.4 -12.9 76 -14 -14 1017.5 989.7

 

Местоположение метеостанции Батагай (Якутия, Россия): широта 67.65 долгота 134.60 высота над уровнем моря 214 м.

В архиве по умолчанию представлена погода в Батагае за последнюю неделю. Архивные данные за месяц целиком и за предыдущие месяцы, начиная с января 2011 года, Вы можете получить, выбрав интересующий диапазон дат из раскрывающегося списка и нажав кнопку "Ввод!".


*Определитесь, кто Вы:
робот инопланетянин человек

Внимание! Время в таблицах - всемирное. Для получения местного времени необходимо прибавить поправку, которая в Батагае равна 10 ч.

Смотрите также архив погоды в соседних городах и на ближайших метеорологических станциях:

Погода в Верхоянске (Якутия, Россия) (52 км)
Погода в Усть-Чарках (Якутия, Россия) (128 км)
Погода в Екюччю (Якутия, Россия) (162 км)
Погода в Батагай-Алыте (Якутия, Россия) (178 км)
Погода в Усть-Куйге (Якутия, Россия) (264 км)
Погода в Иэме (Якутия, Россия) (267 км)
Погода в Депутатском (Якутия, Россия) (286 км)
Погода в Себян-Кюеле (Якутия, Россия) (332 км)
Погода в Юбилейной (Якутия, Россия) (353 км)
Погода в Усть-Моме (Якутия, Россия) (396 км)

Пояснения к столбцам:

Ветер - указаны скорость ветра в м/с - средняя за 10 мин, порывы в срок и между сроками (в фигурных скобках) и направление, откуда дует ветер: С - северный, СВ - северо-восточный, В - восточный, ЮВ - юго-восточный, Ю - южный, ЮЗ - юго-западный, З - западный, СЗ - северо-западный.
Видимость - горизонтальная дальность видимости в метрах или километрах. При видимости от 1 до 10 км при отсутствии осадков обычно наблюдается дымка, при ухудшении видимости до 1 км и менее - туман. В сухую погоду видимость может ухудшаться дымом, пылью или мглою.
Явления - указаны атмосферные явления, наблюдавшиеся в срок или в последний час перед сроком; фигурными скобками обозначены явления, наблюдавшиеся между сроками (за 1-3 часа до срока); квадратными скобками обозначены град или гололедные отложения с указанием их диаметра в мм.
Облачность - указаны через наклонную черту общая и нижняя облачность в баллах и высота нижней границы облаков в метрах; квадратными скобками обозначены формы облаков: Ci - перистые, Cs - перисто-слоистые, Cc - перисто-кучевые, Ac - высококучевые, As - высокослоистые, Sc - слоисто-кучевые, Ns - слоисто-дождевые, Cu - кучевые, Cb - кучево-дождевые. Подробнее классификацию облаков см. в Атласе облаков (PDF).
T - Температура воздуха - температура, измеренная на высоте 2 м над землей.
Td - Температура точки росы - температура, при понижении до которой содержащийся в воздухе водяной пар достигнет насыщения.
f - Относительная влажность воздуха - влажноcть воздуха, измеренная на высоте 2 м над землей.
Te - Эффективная температура - температура, которую ощущает одетый по сезону человек в тени. Характеристика душности погоды. При расчете учитывается влияние влажности воздуха и скорости ветра на теплоощущения человека.
Tes - Эффективная температура на солнце - температура, которую ощущает человек, с поправкой на солнечный нагрев. Характеристика знойности погоды. Зависит от высоты солнца над горизонтом, облачности и скорости ветра. Ночью, в пасмурную погоду, а также при ветре 12 м/с и более поправка равна нулю.
P - Атмосферное давление - приведенное к уровню моря атмосферное давление.
Po - Атмосферное давление - измеренное на уровне метеостанции атмосферное давление.
Tmin - Минимальная температура - минимум температуры воздуха на высоте 2 м над землей.
Tmax - Максимальная температура - максимум температуры воздуха на высоте 2 м над землей.
R - Количество осадков - Количество выпавших осадков за период времени, мм. При наведении курсора мыши на число - период времени, за который выпало указанное количество осадков.
R24 - Количество осадков - Количество выпавших осадков за 24 часа, мм.
S - Снежный покров - Высота снежного покрова, см. При наведении курсора мыши на число - состояние снежного покрова и степень покрытия местности в баллах.